Time,TemperatureF,DewpointF,PressureIn,WindDirection,WindDirectionDegrees,WindSpeedMPH,WindSpeedGustMPH,Humidity,HourlyPrecipIn,Conditions,Clouds,dailyrainin,SolarRadiationWatts/m^2,SoftwareType,DateUTC
2017-03-29 00:02:00,36.5,35.8,29.98,North,9,0.0,0.0,97,0.05,,,0.01,0.0,meteobridge,2017-03-29 04:02:00,
2017-03-29 00:07:00,36.5,36.0,29.98,NNE,14,0.0,0.0,98,0.05,,,0.01,0.0,meteobridge,2017-03-29 04:07:00,
2017-03-29 00:12:00,36.5,36.0,29.98,North,356,0.0,0.0,98,0.04,,,0.01,0.0,meteobridge,2017-03-29 04:12:00,
2017-03-29 00:17:00,36.5,36.0,29.98,North,356,0.0,0.0,98,0.05,,,0.02,0.0,meteobridge,2017-03-29 04:17:00,
2017-03-29 00:22:00,36.5,36.0,29.98,North,4,0.0,0.0,98,0.04,,,0.03,0.0,meteobridge,2017-03-29 04:22:00,
2017-03-29 00:27:00,36.5,36.0,29.98,NNE,14,0.0,0.0,98,0.05,,,0.03,0.0,meteobridge,2017-03-29 04:27:00,
2017-03-29 00:32:00,36.5,36.0,29.97,NNE,14,0.0,0.0,98,0.06,,,0.04,0.0,meteobridge,2017-03-29 04:32:00,
2017-03-29 00:38:00,36.5,36.0,29.97,North,358,0.0,0.0,98,0.05,,,0.04,0.0,meteobridge,2017-03-29 04:38:00,
2017-03-29 00:43:00,36.5,36.0,29.97,NNE,14,0.0,0.0,98,0.05,,,0.05,0.0,meteobridge,2017-03-29 04:43:00,
2017-03-29 00:48:00,36.5,36.0,29.97,North,9,0.0,0.0,98,0.05,,,0.05,0.0,meteobridge,2017-03-29 04:48:00,
2017-03-29 00:53:00,36.5,36.0,29.97,North,9,0.0,0.0,98,0.05,,,0.05,0.0,meteobridge,2017-03-29 04:53:00,
2017-03-29 00:58:00,36.5,36.0,29.97,NNW,343,0.0,0.0,98,0.06,,,0.06,0.0,meteobridge,2017-03-29 04:58:00,
2017-03-29 01:03:00,36.5,36.0,29.97,North,9,0.0,0.0,98,0.05,,,0.06,0.0,meteobridge,2017-03-29 05:03:00,
2017-03-29 01:09:00,36.5,36.0,29.96,NNE,27,0.0,0.0,98,0.05,,,0.06,0.0,meteobridge,2017-03-29 05:09:00,
2017-03-29 01:14:00,36.5,36.0,29.96,NNE,19,0.0,0.0,98,0.04,,,0.06,0.0,meteobridge,2017-03-29 05:14:00,
2017-03-29 01:19:00,36.5,36.0,29.96,NNE,18,0.0,0.0,98,0.04,,,0.06,0.0,meteobridge,2017-03-29 05:19:00,
2017-03-29 01:24:00,36.5,36.0,29.96,North,4,0.0,0.0,98,0.04,,,0.07,0.0,meteobridge,2017-03-29 05:24:00,
2017-03-29 01:29:00,36.5,35.8,29.96,North,9,0.0,0.0,97,0.04,,,0.07,0.0,meteobridge,2017-03-29 05:29:00,
2017-03-29 01:34:00,36.3,35.6,29.96,NNE,14,0.9,1.0,97,0.03,,,0.07,0.0,meteobridge,2017-03-29 05:34:00,
2017-03-29 01:39:00,36.3,35.6,29.96,NNE,33,0.0,0.0,97,0.03,,,0.07,0.0,meteobridge,2017-03-29 05:39:00,
2017-03-29 01:45:00,36.3,35.6,29.96,North,4,0.0,0.0,97,0.02,,,0.07,0.0,meteobridge,2017-03-29 05:45:00,
2017-03-29 01:50:00,36.3,35.6,29.95,North,4,0.0,9.0,97,0.02,,,0.07,0.0,meteobridge,2017-03-29 05:50:00,
2017-03-29 01:55:00,36.3,35.6,29.96,North,9,0.0,2.0,97,0.03,,,0.08,0.0,meteobridge,2017-03-29 05:55:00,
2017-03-29 02:00:00,36.3,35.6,29.96,NNE,20,0.0,0.0,97,0.02,,,0.08,0.0,meteobridge,2017-03-29 06:00:00,
2017-03-29 02:05:00,36.3,35.6,29.96,NNE,20,0.0,10.0,97,0.02,,,0.08,0.0,meteobridge,2017-03-29 06:05:00,
2017-03-29 02:10:00,36.3,35.6,29.96,North,9,0.0,11.0,97,0.02,,,0.08,0.0,meteobridge,2017-03-29 06:10:00,
2017-03-29 02:16:00,36.3,35.6,29.96,North,9,0.0,0.0,97,0.02,,,0.08,0.0,meteobridge,2017-03-29 06:16:00,
2017-03-29 02:21:00,36.3,35.6,29.96,NNW,335,0.9,1.0,97,0.02,,,0.08,0.0,meteobridge,2017-03-29 06:21:00,
2017-03-29 02:26:00,36.3,35.6,29.95,NNW,348,0.0,0.0,97,0.01,,,0.08,0.0,meteobridge,2017-03-29 06:26:00,
2017-03-29 02:31:00,36.3,35.6,29.95,NNE,14,8.9,11.0,97,0.01,,,0.08,0.0,meteobridge,2017-03-29 06:31:00,
2017-03-29 02:36:00,36.1,35.4,29.95,North,9,8.1,9.0,97,0.01,,,0.08,0.0,meteobridge,2017-03-29 06:36:00,
2017-03-29 02:41:00,36.1,35.4,29.95,North,9,8.1,10.0,97,0.01,,,0.08,0.0,meteobridge,2017-03-29 06:41:00,
2017-03-29 02:46:00,36.1,35.4,29.95,North,350,8.1,8.1,97,0.02,,,0.09,0.0,meteobridge,2017-03-29 06:46:00,
2017-03-29 02:51:00,36.1,35.4,29.95,North,9,0.0,10.0,97,0.02,,,0.09,0.0,meteobridge,2017-03-29 06:51:00,
2017-03-29 02:56:00,36.1,35.4,29.95,NNE,21,0.9,1.0,97,0.01,,,0.09,0.0,meteobridge,2017-03-29 06:56:00,
2017-03-29 03:01:00,36.1,35.4,29.95,NNE,29,0.9,10.0,97,0.01,,,0.09,0.0,meteobridge,2017-03-29 07:01:00,
2017-03-29 03:06:00,36.1,35.4,29.95,North,359,0.0,9.0,97,0.01,,,0.09,0.0,meteobridge,2017-03-29 07:06:00,
2017-03-29 03:11:00,36.1,35.4,29.95,North,355,0.0,11.0,97,0.01,,,0.09,0.0,meteobridge,2017-03-29 07:11:00,
2017-03-29 03:16:00,36.1,35.4,29.95,North,9,0.0,9.0,97,0.01,,,0.09,0.0,meteobridge,2017-03-29 07:16:00,
2017-03-29 03:21:00,36.0,35.2,29.94,NNE,31,8.9,10.0,97,0.01,,,0.09,0.0,meteobridge,2017-03-29 07:21:00,
2017-03-29 03:26:00,36.0,35.2,29.95,North,9,0.0,8.0,97,0.01,,,0.09,0.0,meteobridge,2017-03-29 07:26:00,
2017-03-29 03:31:00,36.0,35.2,29.95,North,9,6.0,10.0,97,0.01,,,0.09,0.0,meteobridge,2017-03-29 07:31:00,
2017-03-29 03:36:00,36.0,35.2,29.95,NNE,14,8.1,10.0,97,0.01,,,0.09,0.0,meteobridge,2017-03-29 07:36:00,
2017-03-29 03:42:00,36.0,35.2,29.95,North,4,0.0,0.0,97,0.01,,,0.09,0.0,meteobridge,2017-03-29 07:42:00,
2017-03-29 03:47:00,36.0,35.2,29.95,NNW,340,0.0,0.0,97,0.00,,,0.09,0.0,meteobridge,2017-03-29 07:47:00,
2017-03-29 03:52:00,36.0,35.2,29.95,North,9,0.0,0.0,97,0.00,,,0.09,0.0,meteobridge,2017-03-29 07:52:00,
2017-03-29 03:57:00,36.0,35.2,29.95,NNE,19,0.0,0.0,97,0.00,,,0.09,0.0,meteobridge,2017-03-29 07:57:00,
2017-03-29 04:02:00,36.0,35.2,29.95,North,351,0.0,0.0,97,0.00,,,0.09,0.0,meteobridge,2017-03-29 08:02:00,
2017-03-29 04:07:00,36.0,35.2,29.95,NNW,347,0.0,0.0,97,0.00,,,0.09,0.0,meteobridge,2017-03-29 08:07:00,
2017-03-29 04:12:00,35.8,35.1,29.95,North,9,4.9,8.0,97,0.00,,,0.09,0.0,meteobridge,2017-03-29 08:12:00,
2017-03-29 04:17:00,35.8,35.1,29.95,North,4,8.1,9.0,97,0.00,,,0.09,0.0,meteobridge,2017-03-29 08:17:00,
2017-03-29 04:22:00,35.8,35.1,29.96,North,9,0.0,0.0,97,0.01,,,0.10,0.0,meteobridge,2017-03-29 08:22:00,
2017-03-29 04:27:00,35.8,35.1,29.96,NNW,345,4.0,4.0,97,0.01,,,0.10,0.0,meteobridge,2017-03-29 08:27:00,
2017-03-29 04:32:00,35.8,35.1,29.96,NNE,14,0.0,2.0,97,0.01,,,0.10,0.0,meteobridge,2017-03-29 08:32:00,
2017-03-29 04:38:00,35.8,35.1,29.96,NNW,329,0.0,9.0,97,0.01,,,0.10,0.0,meteobridge,2017-03-29 08:38:00,
2017-03-29 04:43:00,35.8,35.1,29.96,NNW,341,0.0,0.0,97,0.01,,,0.10,0.0,meteobridge,2017-03-29 08:43:00,
2017-03-29 04:48:00,35.6,34.9,29.96,North,9,0.0,9.0,97,0.01,,,0.10,0.0,meteobridge,2017-03-29 08:48:00,
2017-03-29 04:53:00,35.6,34.9,29.96,North,9,0.0,9.0,97,0.01,,,0.10,0.0,meteobridge,2017-03-29 08:53:00,
2017-03-29 04:58:00,35.6,34.9,29.96,NNW,338,6.0,6.0,97,0.01,,,0.10,0.0,meteobridge,2017-03-29 08:58:00,
2017-03-29 05:03:00,35.6,34.9,29.96,NNE,24,0.0,8.0,97,0.01,,,0.10,0.0,meteobridge,2017-03-29 09:03:00,
2017-03-29 05:08:00,35.6,34.9,29.96,North,9,0.0,9.0,97,0.02,,,0.11,0.0,meteobridge,2017-03-29 09:08:00,
2017-03-29 05:14:00,35.6,34.9,29.97,NNW,332,0.0,4.0,97,0.02,,,0.11,0.0,meteobridge,2017-03-29 09:14:00,
2017-03-29 05:19:00,35.6,34.9,29.97,NNW,329,0.0,6.0,97,0.02,,,0.11,0.0,meteobridge,2017-03-29 09:19:00,
2017-03-29 05:24:00,35.6,34.9,29.97,NNW,338,0.0,6.0,97,0.01,,,0.11,0.0,meteobridge,2017-03-29 09:24:00,
2017-03-29 05:29:00,35.6,34.9,29.97,NNW,334,0.0,0.0,97,0.01,,,0.11,0.0,meteobridge,2017-03-29 09:29:00,
2017-03-29 05:32:00,35.6,34.9,29.97,North,9,0.0,0.0,97,0.01,,,0.11,0.0,meteobridge,2017-03-29 09:32:00,
2017-03-29 05:37:00,35.4,34.7,29.97,North,4,0.0,0.0,97,0.01,,,0.11,0.0,meteobridge,2017-03-29 09:37:00,
2017-03-29 05:41:00,35.4,34.7,29.97,North,9,0.0,0.0,97,0.01,,,0.11,0.0,meteobridge,2017-03-29 09:41:00,
2017-03-29 05:46:00,35.4,34.7,29.97,NNE,18,0.0,0.0,97,0.01,,,0.11,0.0,meteobridge,2017-03-29 09:46:00,
2017-03-29 05:51:00,35.4,34.7,29.97,North,351,0.0,9.0,97,0.01,,,0.11,0.0,meteobridge,2017-03-29 09:51:00,
2017-03-29 05:57:00,35.4,34.7,29.98,NNE,14,0.0,0.0,97,0.01,,,0.11,0.0,meteobridge,2017-03-29 09:57:00,
2017-03-29 06:02:00,35.4,34.7,29.98,North,9,0.0,0.0,97,0.01,,,0.11,0.0,meteobridge,2017-03-29 10:02:00,
2017-03-29 06:07:00,35.6,34.9,29.98,North,9,0.0,0.0,97,0.00,,,0.11,0.0,meteobridge,2017-03-29 10:07:00,
2017-03-29 06:12:00,35.4,34.7,29.98,NNW,347,0.0,0.0,97,0.00,,,0.11,0.0,meteobridge,2017-03-29 10:12:00,
2017-03-29 06:17:00,35.4,34.7,29.98,NNW,340,0.0,1.0,97,0.00,,,0.11,0.0,meteobridge,2017-03-29 10:17:00,
2017-03-29 06:22:00,35.4,34.7,29.98,NNE,14,0.0,0.0,97,0.00,,,0.11,0.0,meteobridge,2017-03-29 10:22:00,
2017-03-29 06:28:00,35.6,34.9,29.98,North,9,0.0,0.0,97,0.00,,,0.11,0.0,meteobridge,2017-03-29 10:28:00,
2017-03-29 06:33:00,35.6,34.9,29.98,NNE,18,0.0,1.0,97,0.00,,,0.11,0.0,meteobridge,2017-03-29 10:33:00,
2017-03-29 06:38:00,35.6,34.9,29.98,North,9,0.0,0.0,97,0.00,,,0.11,0.0,meteobridge,2017-03-29 10:38:00,
2017-03-29 06:43:00,35.8,34.7,29.99,NNE,23,0.0,0.0,96,0.00,,,0.11,0.0,meteobridge,2017-03-29 10:43:00,
2017-03-29 06:53:00,35.8,34.7,29.99,North,9,0.0,0.0,96,0.00,,,0.11,0.0,meteobridge,2017-03-29 10:53:00,
2017-03-29 06:59:00,36.0,34.9,29.98,North,355,0.0,0.0,96,0.00,,,0.11,5.0,meteobridge,2017-03-29 10:59:00,
2017-03-29 07:04:00,36.0,35.2,29.99,North,9,4.9,7.0,97,0.00,,,0.11,5.0,meteobridge,2017-03-29 11:04:00,
2017-03-29 07:09:00,36.1,35.1,29.99,NNE,22,0.0,8.0,96,0.00,,,0.11,12.0,meteobridge,2017-03-29 11:09:00,
2017-03-29 07:14:00,36.1,35.1,29.99,North,9,12.1,12.1,96,0.00,,,0.11,19.0,meteobridge,2017-03-29 11:14:00,
2017-03-29 07:19:00,36.3,35.2,30.00,NNW,339,0.0,8.0,96,0.00,,,0.11,19.0,meteobridge,2017-03-29 11:19:00,
2017-03-29 07:24:00,36.5,35.4,29.99,North,4,8.1,12.0,96,0.00,,,0.11,26.0,meteobridge,2017-03-29 11:24:00,
2017-03-29 07:30:00,36.7,35.6,29.99,NNE,21,11.0,12.0,96,0.00,,,0.11,33.0,meteobridge,2017-03-29 11:30:00,
2017-03-29 07:35:00,36.9,35.6,29.99,North,358,0.0,15.0,95,0.00,,,0.11,67.0,meteobridge,2017-03-29 11:35:00,
2017-03-29 07:40:00,36.9,35.6,30.00,NNE,18,8.1,13.0,95,0.00,,,0.11,49.0,meteobridge,2017-03-29 11:40:00,
2017-03-29 07:45:00,37.0,35.4,29.99,North,355,4.9,16.0,94,0.00,,,0.11,63.0,meteobridge,2017-03-29 11:45:00,
2017-03-29 07:50:00,37.0,35.4,29.99,NNW,343,8.1,11.0,94,0.00,,,0.11,98.0,meteobridge,2017-03-29 11:50:00,
2017-03-29 07:55:00,37.0,35.4,29.99,North,351,11.0,13.0,94,0.00,,,0.11,93.0,meteobridge,2017-03-29 11:55:00,
2017-03-29 08:01:00,37.0,35.4,29.99,NNE,26,8.9,15.0,94,0.00,,,0.11,111.0,meteobridge,2017-03-29 12:01:00,
2017-03-29 08:06:00,37.0,35.4,29.99,ENE,60,11.0,15.0,94,0.00,,,0.11,123.0,meteobridge,2017-03-29 12:06:00,
2017-03-29 08:11:00,37.0,35.4,30.00,NNE,29,11.0,15.0,94,0.00,,,0.11,114.0,meteobridge,2017-03-29 12:11:00,
2017-03-29 08:16:00,37.0,35.4,30.00,North,9,14.1,14.1,94,0.00,,,0.11,107.0,meteobridge,2017-03-29 12:16:00,
2017-03-29 08:21:00,37.2,35.6,30.00,NE,51,12.1,15.0,94,0.00,,,0.11,113.0,meteobridge,2017-03-29 12:21:00,
2017-03-29 08:26:00,37.2,35.6,30.00,NNE,18,0.0,16.0,94,0.00,,,0.11,111.0,meteobridge,2017-03-29 12:26:00,
2017-03-29 08:31:00,37.2,35.6,30.00,North,9,0.9,13.0,94,0.00,,,0.11,109.0,meteobridge,2017-03-29 12:31:00,
2017-03-29 08:37:00,37.4,35.8,30.00,North,9,0.0,8.0,94,0.00,,,0.11,116.0,meteobridge,2017-03-29 12:37:00,
2017-03-29 08:42:00,37.4,35.8,30.00,NE,35,0.0,4.0,94,0.00,,,0.11,123.0,meteobridge,2017-03-29 12:42:00,
2017-03-29 08:47:00,37.6,35.8,30.00,NE,36,0.0,13.0,93,0.00,,,0.11,132.0,meteobridge,2017-03-29 12:47:00,
2017-03-29 08:52:00,37.6,35.8,30.00,NNE,21,10.1,14.0,93,0.00,,,0.11,132.0,meteobridge,2017-03-29 12:52:00,
2017-03-29 08:57:00,37.6,35.8,30.00,NNE,14,8.9,9.0,93,0.00,,,0.11,148.0,meteobridge,2017-03-29 12:57:00,
2017-03-29 09:02:00,37.6,35.4,30.00,NNE,28,0.9,14.0,92,0.00,,,0.11,153.0,meteobridge,2017-03-29 13:02:00,
2017-03-29 09:07:00,37.8,35.6,30.00,NNE,14,8.1,13.0,92,0.00,,,0.11,146.0,meteobridge,2017-03-29 13:07:00,
2017-03-29 09:13:00,37.8,35.6,30.00,NE,51,6.0,13.0,92,0.00,,,0.11,162.0,meteobridge,2017-03-29 13:13:00,
2017-03-29 09:18:00,37.9,35.8,29.99,NE,38,6.0,11.0,92,0.00,,,0.11,193.0,meteobridge,2017-03-29 13:18:00,
2017-03-29 09:23:00,37.9,35.8,29.99,NNE,18,0.0,1.0,92,0.00,,,0.11,206.0,meteobridge,2017-03-29 13:23:00,
2017-03-29 09:28:00,38.3,36.0,30.00,North,355,0.0,8.0,91,0.00,,,0.11,225.0,meteobridge,2017-03-29 13:28:00,
2017-03-29 09:33:00,38.5,35.8,30.01,North,355,10.1,12.0,90,0.00,,,0.11,258.0,meteobridge,2017-03-29 13:33:00,
2017-03-29 09:38:00,38.8,36.1,30.01,North,4,2.0,11.0,90,0.00,,,0.11,322.0,meteobridge,2017-03-29 13:38:00,
2017-03-29 09:44:00,39.0,36.3,30.01,North,0,8.1,13.0,90,0.00,,,0.11,313.0,meteobridge,2017-03-29 13:44:00,
2017-03-29 09:49:00,39.4,36.5,30.01,NNE,26,12.1,12.1,89,0.00,,,0.11,287.0,meteobridge,2017-03-29 13:49:00,
2017-03-29 09:54:00,39.6,36.3,30.01,North,4,2.0,10.0,88,0.00,,,0.11,306.0,meteobridge,2017-03-29 13:54:00,
2017-03-29 09:59:00,39.7,36.5,30.02,NNW,327,0.0,8.0,88,0.00,,,0.11,332.0,meteobridge,2017-03-29 13:59:00,
2017-03-29 10:04:00,39.9,36.7,30.02,NNW,343,0.0,1.0,88,0.00,,,0.11,341.0,meteobridge,2017-03-29 14:04:00,
2017-03-29 10:09:00,40.3,36.7,30.02,North,357,0.0,8.0,87,0.00,,,0.11,397.0,meteobridge,2017-03-29 14:09:00,
2017-03-29 10:15:00,40.3,36.5,30.02,North,9,0.9,1.0,86,0.00,,,0.11,355.0,meteobridge,2017-03-29 14:15:00,
2017-03-29 10:20:00,40.6,37.0,30.02,NNE,27,0.0,13.0,87,0.00,,,0.11,329.0,meteobridge,2017-03-29 14:20:00,
2017-03-29 10:25:00,40.8,37.0,30.02,NNW,344,0.0,9.0,86,0.00,,,0.11,417.0,meteobridge,2017-03-29 14:25:00,
2017-03-29 10:30:00,40.8,36.3,30.02,NNE,14,0.9,11.0,84,0.00,,,0.11,457.0,meteobridge,2017-03-29 14:30:00,
2017-03-29 10:35:00,41.2,37.0,30.02,North,4,10.1,11.0,85,0.00,,,0.11,309.0,meteobridge,2017-03-29 14:35:00,
2017-03-29 10:40:00,41.5,37.4,30.02,NW,324,0.0,0.0,85,0.00,,,0.11,306.0,meteobridge,2017-03-29 14:40:00,
2017-03-29 10:45:00,41.5,36.7,30.02,WNW,295,0.9,2.0,83,0.00,,,0.11,299.0,meteobridge,2017-03-29 14:45:00,
2017-03-29 10:50:00,41.7,36.9,30.03,NNW,333,0.0,1.0,83,0.00,,,0.11,163.0,meteobridge,2017-03-29 14:50:00,
2017-03-29 10:55:00,41.7,36.9,30.02,NNW,329,11.0,13.0,83,0.00,,,0.11,176.0,meteobridge,2017-03-29 14:55:00,
2017-03-29 11:01:00,41.5,36.5,30.02,NW,323,0.0,1.0,82,0.00,,,0.11,178.0,meteobridge,2017-03-29 15:01:00,
2017-03-29 11:06:00,41.5,36.7,30.02,NNW,333,0.0,0.0,83,0.00,,,0.11,206.0,meteobridge,2017-03-29 15:06:00,
2017-03-29 11:11:00,41.7,36.9,30.02,NNW,335,0.0,0.0,83,0.00,,,0.11,520.0,meteobridge,2017-03-29 15:11:00,
2017-03-29 11:16:00,41.9,36.9,30.01,NNE,21,0.0,0.0,82,0.00,,,0.11,557.0,meteobridge,2017-03-29 15:16:00,
2017-03-29 11:21:00,42.1,36.3,30.01,NNE,28,0.0,13.0,80,0.00,,,0.11,362.0,meteobridge,2017-03-29 15:21:00,
2017-03-29 11:26:00,42.1,36.7,30.01,NNE,33,0.0,12.0,81,0.00,,,0.11,257.0,meteobridge,2017-03-29 15:26:00,
2017-03-29 11:31:00,42.4,36.3,30.01,NE,37,0.9,9.0,79,0.00,,,0.11,332.0,meteobridge,2017-03-29 15:31:00,
2017-03-29 11:36:00,41.9,35.8,30.00,ENE,58,4.9,16.0,79,0.00,,,0.11,213.0,meteobridge,2017-03-29 15:36:00,
2017-03-29 11:41:00,41.5,36.5,30.00,NE,36,2.9,3.0,82,0.00,,,0.11,221.0,meteobridge,2017-03-29 15:41:00,
2017-03-29 11:46:00,41.9,35.8,30.01,NE,56,4.0,14.0,79,0.00,,,0.11,250.0,meteobridge,2017-03-29 15:46:00,
2017-03-29 11:51:00,42.1,36.3,30.00,NE,44,6.0,8.0,80,0.00,,,0.11,295.0,meteobridge,2017-03-29 15:51:00,
2017-03-29 11:57:00,42.1,36.3,30.00,NE,49,0.9,9.0,80,0.00,,,0.11,334.0,meteobridge,2017-03-29 15:57:00,
2017-03-29 12:02:00,41.7,36.3,30.00,NE,52,0.0,6.0,81,0.00,,,0.11,279.0,meteobridge,2017-03-29 16:02:00,
2017-03-29 12:07:00,41.5,36.5,30.00,NE,43,0.0,0.0,82,0.00,,,0.11,213.0,meteobridge,2017-03-29 16:07:00,
2017-03-29 12:12:00,41.4,36.3,30.00,NE,51,0.0,7.0,82,0.00,,,0.11,223.0,meteobridge,2017-03-29 16:12:00,
2017-03-29 12:17:00,41.4,36.9,30.00,NE,43,4.0,4.0,84,0.00,,,0.11,250.0,meteobridge,2017-03-29 16:17:00,
2017-03-29 12:22:00,41.4,36.9,30.00,NE,51,0.0,1.0,84,0.00,,,0.11,290.0,meteobridge,2017-03-29 16:22:00,
2017-03-29 12:24:00,41.4,36.9,30.00,NE,37,0.0,0.0,84,0.00,,,0.11,306.0,meteobridge,2017-03-29 16:24:00,
2017-03-29 12:29:00,41.4,36.9,30.00,NNE,32,0.0,0.0,84,0.00,,,0.11,246.0,meteobridge,2017-03-29 16:29:00,
2017-03-29 12:34:00,41.4,36.9,30.00,ENE,58,0.0,0.0,84,0.00,,,0.11,165.0,meteobridge,2017-03-29 16:34:00,
2017-03-29 12:38:00,41.4,36.9,30.01,NNE,33,0.0,0.0,84,0.00,,,0.11,185.0,meteobridge,2017-03-29 16:38:00,
2017-03-29 12:43:00,41.5,37.0,30.00,NNW,337,0.0,0.0,84,0.00,,,0.11,200.0,meteobridge,2017-03-29 16:43:00,
2017-03-29 12:48:00,41.7,36.9,30.00,NNW,337,0.0,0.0,83,0.00,,,0.11,281.0,meteobridge,2017-03-29 16:48:00,
2017-03-29 12:53:00,41.9,36.9,30.00,East,89,0.0,0.0,82,0.00,,,0.11,320.0,meteobridge,2017-03-29 16:53:00,
2017-03-29 12:58:00,42.1,37.0,30.00,ENE,65,0.0,2.0,82,0.00,,,0.11,362.0,meteobridge,2017-03-29 16:58:00,
2017-03-29 13:03:00,42.1,37.0,30.00,East,86,0.0,0.0,82,0.00,,,0.11,374.0,meteobridge,2017-03-29 17:03:00,
2017-03-29 13:09:00,41.7,36.9,30.00,NE,51,0.9,1.0,83,0.00,,,0.11,299.0,meteobridge,2017-03-29 17:09:00,
2017-03-29 13:14:00,41.9,37.0,30.00,East,90,0.0,3.0,83,0.00,,,0.11,199.0,meteobridge,2017-03-29 17:14:00,
2017-03-29 13:19:00,42.1,37.0,30.00,East,85,0.0,0.0,82,0.00,,,0.11,172.0,meteobridge,2017-03-29 17:19:00,
2017-03-29 13:24:00,42.3,36.9,30.00,East,89,0.0,0.0,81,0.00,,,0.11,128.0,meteobridge,2017-03-29 17:24:00,
2017-03-29 13:29:00,42.6,36.5,30.00,NNW,335,0.0,2.0,79,0.00,,,0.11,151.0,meteobridge,2017-03-29 17:29:00,
2017-03-29 13:34:00,42.3,37.4,30.00,South,187,0.0,2.0,83,0.00,,,0.11,155.0,meteobridge,2017-03-29 17:34:00,
2017-03-29 13:40:00,41.5,37.0,30.00,SSE,147,0.0,0.0,84,0.00,,,0.11,174.0,meteobridge,2017-03-29 17:40:00,
2017-03-29 13:45:00,41.4,37.2,30.00,SE,143,0.0,0.0,85,0.00,,,0.11,190.0,meteobridge,2017-03-29 17:45:00,
2017-03-29 13:50:00,41.5,37.4,30.00,South,185,0.0,0.0,85,0.00,,,0.11,172.0,meteobridge,2017-03-29 17:50:00,
2017-03-29 13:55:00,41.5,37.0,29.99,SE,124,0.0,0.0,84,0.00,,,0.11,160.0,meteobridge,2017-03-29 17:55:00,
2017-03-29 14:00:00,41.7,37.2,30.00,SSE,166,0.0,0.0,84,0.00,,,0.11,165.0,meteobridge,2017-03-29 18:00:00,
2017-03-29 14:05:00,41.5,37.4,30.00,SSW,194,0.0,0.0,85,0.00,,,0.11,165.0,meteobridge,2017-03-29 18:05:00,
2017-03-29 14:11:00,41.7,37.6,30.00,SSW,194,0.0,0.0,85,0.00,,,0.11,162.0,meteobridge,2017-03-29 18:11:00,
2017-03-29 14:16:00,42.1,37.6,30.00,SSE,151,0.0,0.0,84,0.00,,,0.11,148.0,meteobridge,2017-03-29 18:16:00,
2017-03-29 14:21:00,42.3,37.4,30.00,SSE,164,0.0,0.0,83,0.00,,,0.11,128.0,meteobridge,2017-03-29 18:21:00,
2017-03-29 14:26:00,42.1,37.6,30.00,SSW,204,0.0,0.0,84,0.00,,,0.11,128.0,meteobridge,2017-03-29 18:26:00,
2017-03-29 14:31:00,41.7,37.6,30.00,SSW,204,0.0,0.0,85,0.00,,,0.11,134.0,meteobridge,2017-03-29 18:31:00,
2017-03-29 14:36:00,41.4,37.2,30.00,South,188,0.0,0.0,85,0.00,,,0.11,135.0,meteobridge,2017-03-29 18:36:00,
2017-03-29 14:42:00,41.2,37.4,30.00,SSW,208,0.0,0.0,86,0.00,,,0.11,142.0,meteobridge,2017-03-29 18:42:00,
2017-03-29 14:47:00,41.2,37.4,30.00,SSW,195,0.0,0.0,86,0.00,,,0.11,174.0,meteobridge,2017-03-29 18:47:00,
2017-03-29 14:52:00,41.5,36.7,30.00,NW,307,0.0,3.0,83,0.00,,,0.11,207.0,meteobridge,2017-03-29 18:52:00,
2017-03-29 14:57:00,43.0,36.7,30.00,NNE,20,0.0,0.0,78,0.00,,,0.11,195.0,meteobridge,2017-03-29 18:57:00,
2017-03-29 15:02:00,43.9,34.7,30.00,NNW,339,11.0,11.0,70,0.00,,,0.11,190.0,meteobridge,2017-03-29 19:02:00,
2017-03-29 15:07:00,44.6,34.3,30.00,NNW,345,0.0,0.0,67,0.00,,,0.11,156.0,meteobridge,2017-03-29 19:07:00,
2017-03-29 15:13:00,44.8,33.3,30.00,NW,309,6.9,9.0,64,0.00,,,0.11,128.0,meteobridge,2017-03-29 19:13:00,
2017-03-29 15:18:00,44.4,31.8,30.01,NW,323,13.0,20.0,61,0.00,,,0.11,121.0,meteobridge,2017-03-29 19:18:00,
2017-03-29 15:23:00,44.2,31.3,30.00,NNW,345,8.1,17.0,60,0.00,,,0.11,134.0,meteobridge,2017-03-29 19:23:00,
2017-03-29 15:28:00,44.1,31.5,30.00,NW,315,13.0,14.0,61,0.00,,,0.11,128.0,meteobridge,2017-03-29 19:28:00,
2017-03-29 15:33:00,44.1,31.5,30.01,NW,317,0.0,8.0,61,0.00,,,0.11,105.0,meteobridge,2017-03-29 19:33:00,
2017-03-29 15:38:00,43.9,31.3,30.01,NW,311,0.9,4.0,61,0.00,,,0.11,105.0,meteobridge,2017-03-29 19:38:00,
2017-03-29 15:44:00,43.9,31.6,30.01,WNW,290,0.0,10.0,62,0.00,,,0.11,104.0,meteobridge,2017-03-29 19:44:00,
2017-03-29 15:49:00,43.5,30.9,30.01,NW,306,14.1,17.0,61,0.00,,,0.11,93.0,meteobridge,2017-03-29 19:49:00,
2017-03-29 15:54:00,43.2,30.6,30.01,WNW,303,15.0,17.0,61,0.00,,,0.11,97.0,meteobridge,2017-03-29 19:54:00,
2017-03-29 15:59:00,43.2,31.1,30.01,NW,311,0.0,19.0,62,0.00,,,0.11,88.0,meteobridge,2017-03-29 19:59:00,
2017-03-29 16:04:00,42.8,30.2,30.01,NNW,330,4.9,17.0,61,0.00,,,0.11,77.0,meteobridge,2017-03-29 20:04:00,
2017-03-29 16:09:00,42.4,30.0,30.01,NNW,339,4.9,11.0,61,0.00,,,0.11,67.0,meteobridge,2017-03-29 20:09:00,
2017-03-29 16:15:00,42.4,30.4,30.01,NW,318,8.9,13.0,62,0.00,,,0.11,69.0,meteobridge,2017-03-29 20:15:00,
2017-03-29 16:20:00,42.3,29.8,30.01,WNW,290,4.0,17.0,61,0.00,,,0.11,70.0,meteobridge,2017-03-29 20:20:00,
2017-03-29 16:25:00,42.3,30.2,30.01,NW,305,15.0,15.0,62,0.00,,,0.11,76.0,meteobridge,2017-03-29 20:25:00,
2017-03-29 16:30:00,42.1,30.0,30.01,NNW,332,6.0,9.0,62,0.00,,,0.11,60.0,meteobridge,2017-03-29 20:30:00,
2017-03-29 16:35:00,42.1,30.0,30.02,NW,320,14.1,16.0,62,0.00,,,0.11,60.0,meteobridge,2017-03-29 20:35:00,
2017-03-29 16:40:00,41.9,29.8,30.02,NW,321,4.9,12.0,62,0.00,,,0.11,56.0,meteobridge,2017-03-29 20:40:00,
2017-03-29 16:46:00,41.9,29.8,30.02,NNE,14,2.0,14.0,62,0.00,,,0.11,51.0,meteobridge,2017-03-29 20:46:00,
2017-03-29 16:51:00,41.9,29.8,30.02,North,357,0.9,8.0,62,0.00,,,0.11,53.0,meteobridge,2017-03-29 20:51:00,
2017-03-29 16:56:00,41.9,29.8,30.03,NW,324,0.0,11.0,62,0.00,,,0.11,60.0,meteobridge,2017-03-29 20:56:00,
2017-03-29 17:01:00,41.9,30.2,30.03,NNW,343,8.1,8.1,63,0.00,,,0.11,67.0,meteobridge,2017-03-29 21:01:00,
2017-03-29 17:06:00,41.9,29.8,30.03,North,353,0.0,3.0,62,0.00,,,0.11,65.0,meteobridge,2017-03-29 21:06:00,
2017-03-29 17:11:00,41.9,29.8,30.03,NNE,18,0.0,2.0,62,0.00,,,0.11,77.0,meteobridge,2017-03-29 21:11:00,
2017-03-29 17:17:00,41.7,29.3,30.03,North,353,0.0,10.0,61,0.00,,,0.11,83.0,meteobridge,2017-03-29 21:17:00,
2017-03-29 17:22:00,41.7,28.9,30.03,North,350,2.9,18.0,60,0.00,,,0.11,100.0,meteobridge,2017-03-29 21:22:00,
2017-03-29 17:27:00,41.7,28.9,30.03,North,350,6.0,8.0,60,0.00,,,0.11,107.0,meteobridge,2017-03-29 21:27:00,
2017-03-29 17:32:00,41.7,28.4,30.03,NNW,329,0.0,10.0,59,0.00,,,0.11,98.0,meteobridge,2017-03-29 21:32:00,
2017-03-29 17:37:00,41.7,28.9,30.04,NW,319,0.0,3.0,60,0.00,,,0.11,102.0,meteobridge,2017-03-29 21:37:00,
2017-03-29 17:42:00,41.7,28.9,30.04,North,4,0.0,16.0,60,0.00,,,0.11,93.0,meteobridge,2017-03-29 21:42:00,
2017-03-29 17:48:00,41.7,28.9,30.04,North,9,0.9,18.0,60,0.00,,,0.11,65.0,meteobridge,2017-03-29 21:48:00,
2017-03-29 17:53:00,41.7,28.9,30.04,North,9,0.0,11.0,60,0.00,,,0.11,49.0,meteobridge,2017-03-29 21:53:00,
2017-03-29 17:58:00,41.5,28.8,30.04,NNE,31,0.9,12.0,60,0.00,,,0.11,58.0,meteobridge,2017-03-29 21:58:00,
2017-03-29 18:03:00,41.5,28.8,30.05,NW,324,0.0,0.0,60,0.00,,,0.11,54.0,meteobridge,2017-03-29 22:03:00,
2017-03-29 18:08:00,41.5,28.8,30.05,NNW,339,0.0,10.0,60,0.00,,,0.11,47.0,meteobridge,2017-03-29 22:08:00,
2017-03-29 18:13:00,41.4,28.6,30.05,NNW,340,0.0,0.0,60,0.00,,,0.11,42.0,meteobridge,2017-03-29 22:13:00,
2017-03-29 18:18:00,41.4,28.6,30.05,North,4,0.0,8.0,60,0.00,,,0.11,44.0,meteobridge,2017-03-29 22:18:00,
2017-03-29 18:23:00,41.4,28.6,30.05,North,349,0.0,2.0,60,0.00,,,0.11,26.0,meteobridge,2017-03-29 22:23:00,
2017-03-29 18:28:00,41.2,28.4,30.05,NW,326,0.0,2.0,60,0.00,,,0.11,21.0,meteobridge,2017-03-29 22:28:00,
2017-03-29 18:33:00,41.2,27.9,30.06,NW,309,0.9,8.0,59,0.00,,,0.11,21.0,meteobridge,2017-03-29 22:33:00,
2017-03-29 18:38:00,41.2,28.4,30.06,North,355,0.0,2.0,60,0.00,,,0.11,23.0,meteobridge,2017-03-29 22:38:00,
2017-03-29 18:44:00,41.2,27.9,30.06,NNW,329,0.0,2.0,59,0.00,,,0.11,12.0,meteobridge,2017-03-29 22:44:00,
2017-03-29 18:49:00,41.2,28.4,30.06,NW,325,0.0,4.0,60,0.00,,,0.11,7.0,meteobridge,2017-03-29 22:49:00,
2017-03-29 18:54:00,41.0,28.2,30.06,NNW,334,0.0,0.0,60,0.00,,,0.11,7.0,meteobridge,2017-03-29 22:54:00,
2017-03-29 18:59:00,41.0,28.2,30.07,NW,309,0.0,0.0,60,0.00,,,0.11,5.0,meteobridge,2017-03-29 22:59:00,
2017-03-29 19:04:00,40.8,28.4,30.07,WNW,293,0.0,0.0,61,0.00,,,0.11,0.0,meteobridge,2017-03-29 23:04:00,
2017-03-29 19:09:00,40.8,28.4,30.07,NW,313,0.0,1.0,61,0.00,,,0.11,0.0,meteobridge,2017-03-29 23:09:00,
2017-03-29 19:14:00,40.8,28.0,30.07,NNW,329,0.0,2.0,60,0.00,,,0.11,0.0,meteobridge,2017-03-29 23:14:00,
2017-03-29 19:15:00,40.8,28.0,30.07,WNW,288,0.0,0.0,60,0.00,,,0.11,0.0,meteobridge,2017-03-29 23:15:00,
2017-03-29 19:20:00,40.8,28.0,30.07,NW,305,0.0,0.0,60,0.00,,,0.11,0.0,meteobridge,2017-03-29 23:20:00,
2017-03-29 19:25:00,40.6,27.9,30.07,WNW,297,0.0,1.0,60,0.00,,,0.11,0.0,meteobridge,2017-03-29 23:25:00,
2017-03-29 19:30:00,40.6,27.9,30.07,WNW,284,9.0,9.0,60,0.00,,,0.11,0.0,meteobridge,2017-03-29 23:30:00,
2017-03-29 19:35:00,40.6,27.5,30.08,NW,319,0.0,4.0,59,0.00,,,0.11,0.0,meteobridge,2017-03-29 23:35:00,
2017-03-29 19:40:00,40.5,27.3,30.08,NW,321,0.0,10.0,59,0.00,,,0.11,0.0,meteobridge,2017-03-29 23:40:00,
2017-03-29 19:45:00,40.5,27.3,30.09,NW,319,0.9,3.0,59,0.00,,,0.11,0.0,meteobridge,2017-03-29 23:45:00,
2017-03-29 19:50:00,40.5,27.7,30.09,NW,312,0.0,1.0,60,0.00,,,0.11,0.0,meteobridge,2017-03-29 23:50:00,
2017-03-29 19:55:00,40.3,27.1,30.09,NNW,330,0.0,8.0,59,0.00,,,0.11,0.0,meteobridge,2017-03-29 23:55:00,
2017-03-29 20:01:00,40.3,27.1,30.09,WNW,289,0.0,0.0,59,0.00,,,0.11,0.0,meteobridge,2017-03-30 00:01:00,
2017-03-29 20:06:00,40.3,27.1,30.10,WNW,290,0.0,0.0,59,0.00,,,0.11,0.0,meteobridge,2017-03-30 00:06:00,
2017-03-29 20:11:00,39.9,27.1,30.10,WNW,295,0.0,0.0,60,0.00,,,0.11,0.0,meteobridge,2017-03-30 00:11:00,
2017-03-29 20:16:00,39.7,27.0,30.10,NNW,336,0.0,0.0,60,0.00,,,0.11,0.0,meteobridge,2017-03-30 00:16:00,
2017-03-29 20:21:00,39.7,27.0,30.11,NW,319,0.0,0.0,60,0.00,,,0.11,0.0,meteobridge,2017-03-30 00:21:00,
2017-03-29 20:26:00,39.6,26.8,30.11,NW,324,0.0,3.0,60,0.00,,,0.11,0.0,meteobridge,2017-03-30 00:26:00,
2017-03-29 20:31:00,39.4,27.1,30.11,NW,324,0.0,0.0,61,0.00,,,0.11,0.0,meteobridge,2017-03-30 00:31:00,
2017-03-29 20:37:00,39.4,27.1,30.11,North,349,0.0,1.0,61,0.00,,,0.11,0.0,meteobridge,2017-03-30 00:37:00,
2017-03-29 20:42:00,39.2,27.0,30.11,NNW,342,0.0,0.0,61,0.00,,,0.11,0.0,meteobridge,2017-03-30 00:42:00,
2017-03-29 20:47:00,39.0,27.1,30.11,NNW,328,0.0,0.0,62,0.00,,,0.11,0.0,meteobridge,2017-03-30 00:47:00,
2017-03-29 20:52:00,38.8,27.0,30.11,NW,322,0.0,1.0,62,0.00,,,0.11,0.0,meteobridge,2017-03-30 00:52:00,
2017-03-29 20:57:00,38.8,27.0,30.11,NNW,332,0.0,0.0,62,0.00,,,0.11,0.0,meteobridge,2017-03-30 00:57:00,
2017-03-29 21:02:00,38.8,27.0,30.11,WNW,301,0.0,0.0,62,0.00,,,0.11,0.0,meteobridge,2017-03-30 01:02:00,
2017-03-29 21:08:00,38.7,27.1,30.11,NW,319,0.0,0.0,63,0.00,,,0.11,0.0,meteobridge,2017-03-30 01:08:00,
2017-03-29 21:13:00,38.5,27.0,30.11,NW,313,0.0,0.0,63,0.00,,,0.11,0.0,meteobridge,2017-03-30 01:13:00,
2017-03-29 21:18:00,38.5,27.0,30.11,NW,309,0.0,0.0,63,0.00,,,0.11,0.0,meteobridge,2017-03-30 01:18:00,
2017-03-29 21:23:00,38.5,27.0,30.12,NNW,332,0.0,0.0,63,0.00,,,0.11,0.0,meteobridge,2017-03-30 01:23:00,
2017-03-29 21:28:00,38.5,27.3,30.12,WNW,302,0.0,0.0,64,0.00,,,0.11,0.0,meteobridge,2017-03-30 01:28:00,
2017-03-29 21:33:00,38.3,27.1,30.12,WNW,297,0.0,0.0,64,0.00,,,0.11,0.0,meteobridge,2017-03-30 01:33:00,
2017-03-29 21:39:00,38.1,27.0,30.12,NNW,330,0.0,0.0,64,0.00,,,0.11,0.0,meteobridge,2017-03-30 01:39:00,
2017-03-29 21:44:00,38.1,27.0,30.12,WNW,286,0.0,0.0,64,0.00,,,0.11,0.0,meteobridge,2017-03-30 01:44:00,
2017-03-29 21:49:00,37.9,26.8,30.12,WNW,295,0.0,1.0,64,0.00,,,0.11,0.0,meteobridge,2017-03-30 01:49:00,
2017-03-29 21:54:00,37.9,26.8,30.12,NW,307,0.0,1.0,64,0.00,,,0.11,0.0,meteobridge,2017-03-30 01:54:00,
2017-03-29 21:59:00,37.9,26.8,30.12,WNW,295,0.0,2.0,64,0.00,,,0.11,0.0,meteobridge,2017-03-30 01:59:00,
2017-03-29 22:04:00,37.8,26.6,30.12,West,272,0.0,8.0,64,0.00,,,0.11,0.0,meteobridge,2017-03-30 02:04:00,
2017-03-29 22:10:00,37.8,26.6,30.12,WNW,288,0.0,11.0,64,0.00,,,0.11,0.0,meteobridge,2017-03-30 02:10:00,
2017-03-29 22:15:00,37.8,27.1,30.12,WNW,295,0.9,12.0,65,0.00,,,0.11,0.0,meteobridge,2017-03-30 02:15:00,
2017-03-29 22:20:00,37.8,26.6,30.12,WNW,290,0.0,4.0,64,0.00,,,0.11,0.0,meteobridge,2017-03-30 02:20:00,
2017-03-29 22:25:00,37.6,27.0,30.13,WNW,298,0.0,2.0,65,0.00,,,0.11,0.0,meteobridge,2017-03-30 02:25:00,
2017-03-29 22:30:00,37.0,26.8,30.13,WNW,294,0.0,12.0,66,0.00,,,0.11,0.0,meteobridge,2017-03-30 02:30:00,